Simultaneous Nadir Overpasses (SNOs) Predictions

Prediction of SNOs between GOES-14 and AQUA Satellite Orbit:

Table of predicted SNOs for the next 14.0 days since TLE Epoch: 8/18/2018
Index Date Time (GOES-14) GOES-14 Lat,Lon AQUA Lat,Lon Distance(km) Time Diff (sec)
1 08/19/2018 08:15:29 0.38,-104.44 -0.49,-100.33 466.36 80
2 08/19/2018 20:36:53 -0.39,-104.59 -0.57,-105.53 106.53 80
3 08/21/2018 20:27:20 -0.38,-104.57 0.06,-102.57 227.15 80
4 08/22/2018 08:48:35 0.39,-104.41 1.07,-107.72 375.92 80
5 08/24/2018 08:36:22 0.38,-104.38 0.44,-104.76 42.54 80
6 08/26/2018 08:21:28 0.38,-104.36 -0.14,-101.79 291.16 80
7 08/26/2018 20:42:51 -0.38,-104.49 -0.91,-106.99 284.51 80
8 08/28/2018 20:33:18 -0.38,-104.46 -0.27,-104.03 49.72 80
9 08/30/2018 20:21:05 -0.38,-104.44 0.32,-101.06 384.01 80
10 08/31/2018 08:42:19 0.38,-104.31 0.81,-106.21 216.61 80




NCC Satellite Simultaneous Nadir Overpasses (SNOs) Prediction Service
